User: anonymous   Login
Location: Grand Lay
(47.3253°N, 0.9468°E)
Time: 16:26:44
(UTC+00:00)
Language:

Cosmos 2181 Rocket - Orbit

View from above orbital plane
View from above orbital plane
View from above satellite
View from above satellite

Ground track
Ground track

The orbit is defined by the following mean orbital elements,

1 21903U          26070.24025962 +.00000000 +00000-0 +56356-4 0 00002
2 21903  82.9411 341.1220 0042008 201.9769 269.7855 13.74743991    03
Epoch (UTC): 11 March 2026 05:45:58
Eccentricity: 0.0042008
inclination: 82.9411°
perigee height: 952 km
apogee height: 1014 km
right ascension of ascending node: 341.1220°
argument of perigee: 201.9769°
revolutions per day: 13.74743991
mean anomaly at epoch: 269.7855°

The dashed part of the orbit path shows where the satellite is in the earth's shadow,  

DLR